AAL1549 KPHX-KSAN

Flight info

Callsign AAL1549
Flight time 0h 58m
Altitude 36000
Route FYRBD1 MOHAK J2 HOGGZ LUCKI1
Aircraft A20N/M-SDE2E3FGHIRWXY/LB1

Departure

Time 2026-05-04 02:31
Airport Phoenix Sky Harbor International Airport (KPHX)

Arrival

Time 2026-05-04 03:29
Airport San Diego International Airport (KSAN)
Time Latitude Longitude Altitude Speed Heading
2026-05-04 02:00 33.43405 -111.99724 1134 ft 0 kts 79°
2026-05-04 02:07 33.43404 -111.99733 1134 ft 3 kts 79°
2026-05-04 02:07 33.43400 -111.99759 1132 ft 3 kts 88°
2026-05-04 02:08 33.43404 -111.99783 1134 ft 1 kts 152°
2026-05-04 02:25 33.43403 -111.99784 1130 ft 0 kts 160°
2026-05-04 02:25 33.43400 -111.99783 1130 ft 0 kts 167°
2026-05-04 02:26 33.43383 -111.99783 1135 ft 7 kts 179°
2026-05-04 02:26 33.43300 -111.99770 1134 ft 16 kts 147°
2026-05-04 02:26 33.43282 -111.99617 1133 ft 25 kts 91°
2026-05-04 02:27 33.43283 -111.99416 1134 ft 6 kts 90°
2026-05-04 02:27 33.43282 -111.99362 1131 ft 8 kts 90°
2026-05-04 02:27 33.43280 -111.99284 1132 ft 10 kts 103°
2026-05-04 02:27 33.43264 -111.99253 1134 ft 0 kts 136°
2026-05-04 02:28 33.43258 -111.99248 1131 ft 1 kts 149°
2026-05-04 02:28 33.43241 -111.99248 1135 ft 4 kts 184°
2026-05-04 02:28 33.43192 -111.99284 1138 ft 18 kts 221°
2026-05-04 02:29 33.43107 -111.99413 1135 ft 20 kts 257°
2026-05-04 02:29 33.43103 -111.99470 1135 ft 0 kts 271°
2026-05-04 02:30 33.43105 -111.99585 1135 ft 43 kts 270°
2026-05-04 02:30 33.43105 -112.00212 1134 ft 105 kts 270°
2026-05-04 02:31 33.43105 -112.01286 1129 ft 152 kts 270°
2026-05-04 02:31 33.43105 -112.02571 1613 ft 151 kts 269°
2026-05-04 02:31 33.43108 -112.03838 2174 ft 153 kts 266°
2026-05-04 02:31 33.43092 -112.05109 2725 ft 157 kts 257°
2026-05-04 02:32 33.42808 -112.06452 3040 ft 176 kts 246°
2026-05-04 02:32 33.42328 -112.07872 3419 ft 197 kts 246°
2026-05-04 02:32 33.41835 -112.09477 3832 ft 216 kts 249°
2026-05-04 02:32 33.41326 -112.11273 4247 ft 240 kts 249°
2026-05-04 02:33 33.40793 -112.13227 4858 ft 251 kts 250°
2026-05-04 02:33 33.40210 -112.15225 5675 ft 256 kts 241°
2026-05-04 02:33 33.39106 -112.16883 6468 ft 256 kts 217°
2026-05-04 02:33 33.37507 -112.17834 7238 ft 261 kts 193°
2026-05-04 02:34 33.35695 -112.17871 8054 ft 266 kts 169°
2026-05-04 02:34 33.33901 -112.17252 8905 ft 268 kts 165°
2026-05-04 02:34 33.32101 -112.16593 9710 ft 273 kts 165°
2026-05-04 02:34 33.30265 -112.15927 10366 ft 281 kts 165°
2026-05-04 02:35 33.28315 -112.15245 10604 ft 304 kts 169°
2026-05-04 02:35 33.26144 -112.15174 10817 ft 321 kts 192°
2026-05-04 02:35 33.24079 -112.16213 11425 ft 326 kts 215°
2026-05-04 02:35 33.22507 -112.18159 12212 ft 329 kts 236°
2026-05-04 02:36 33.21661 -112.20673 12994 ft 335 kts 258°
2026-05-04 02:36 33.21423 -112.23489 13778 ft 339 kts 261°
2026-05-04 02:36 33.20991 -112.26218 14469 ft 338 kts 251°
2026-05-04 02:36 33.20128 -112.28817 15241 ft 337 kts 242°
2026-05-04 02:37 33.18952 -112.31238 15921 ft 339 kts 237°
2026-05-04 02:37 33.17594 -112.33545 16598 ft 341 kts 234°
2026-05-04 02:37 33.16152 -112.35806 17278 ft 343 kts 233°
2026-05-04 02:37 33.14682 -112.38054 17939 ft 345 kts 233°
2026-05-04 02:38 33.13201 -112.40316 18518 ft 347 kts 233°
2026-05-04 02:38 33.11714 -112.42596 19057 ft 349 kts 234°
2026-05-04 02:38 33.10218 -112.44899 19624 ft 351 kts 234°
2026-05-04 02:38 33.08721 -112.47210 20204 ft 353 kts 235°
2026-05-04 02:39 33.07213 -112.49538 20640 ft 357 kts 235°
2026-05-04 02:39 33.05693 -112.51886 20783 ft 357 kts 235°
2026-05-04 02:39 33.04166 -112.54243 21082 ft 360 kts 235°
2026-05-04 02:39 33.02630 -112.56611 21735 ft 360 kts 235°
2026-05-04 02:40 33.01112 -112.58949 22298 ft 362 kts 235°
2026-05-04 02:40 32.99565 -112.61334 22849 ft 365 kts 235°
2026-05-04 02:40 32.98011 -112.63732 23387 ft 367 kts 237°
2026-05-04 02:40 32.96650 -112.66296 23878 ft 365 kts 245°
2026-05-04 02:41 32.95647 -112.69059 24402 ft 363 kts 252°
2026-05-04 02:41 32.95005 -112.71963 24894 ft 362 kts 260°
2026-05-04 02:41 32.94617 -112.74930 25374 ft 363 kts 261°
2026-05-04 02:41 32.94225 -112.77905 25850 ft 364 kts 261°
2026-05-04 02:42 32.93826 -112.80880 26317 ft 364 kts 261°
2026-05-04 02:42 32.93423 -112.83857 26769 ft 365 kts 261°
2026-05-04 02:42 32.93019 -112.86841 27199 ft 366 kts 261°
2026-05-04 02:42 32.92613 -112.89838 27621 ft 366 kts 261°
2026-05-04 02:43 32.92206 -112.92833 28036 ft 367 kts 261°
2026-05-04 02:43 32.91797 -112.95844 28429 ft 368 kts 262°
2026-05-04 02:43 32.91393 -112.98815 28803 ft 369 kts 262°
2026-05-04 02:43 32.90981 -113.01835 29145 ft 370 kts 262°
2026-05-04 02:44 32.90568 -113.04866 29520 ft 371 kts 262°
2026-05-04 02:44 32.90152 -113.07901 29890 ft 372 kts 262°
2026-05-04 02:44 32.89736 -113.10937 30231 ft 371 kts 262°
2026-05-04 02:44 32.89319 -113.13971 30587 ft 371 kts 262°
2026-05-04 02:45 32.88902 -113.17001 30962 ft 370 kts 262°
2026-05-04 02:45 32.88488 -113.20009 31434 ft 366 kts 261°
2026-05-04 02:45 32.88078 -113.22979 31951 ft 361 kts 261°
2026-05-04 02:45 32.87674 -113.25905 32476 ft 356 kts 261°
2026-05-04 02:46 32.87273 -113.28794 32980 ft 351 kts 261°
2026-05-04 02:46 32.86878 -113.31646 33448 ft 348 kts 261°
2026-05-04 02:46 32.86490 -113.34436 33868 ft 344 kts 261°
2026-05-04 02:46 32.86101 -113.37234 34199 ft 342 kts 261°
2026-05-04 02:47 32.85712 -113.40018 34451 ft 341 kts 261°
2026-05-04 02:47 32.85324 -113.42797 34685 ft 340 kts 261°
2026-05-04 02:47 32.84935 -113.45571 34935 ft 340 kts 261°
2026-05-04 02:47 32.84547 -113.48335 35186 ft 339 kts 261°
2026-05-04 02:48 32.84158 -113.51100 35438 ft 337 kts 261°
2026-05-04 02:48 32.83771 -113.53846 35647 ft 337 kts 261°
2026-05-04 02:48 32.83384 -113.56589 35753 ft 336 kts 261°
2026-05-04 02:48 32.82997 -113.59331 35756 ft 335 kts 261°
2026-05-04 02:49 32.82224 -113.64791 35754 ft 335 kts 261°
2026-05-04 02:49 32.81448 -113.70258 35765 ft 335 kts 261°
2026-05-04 02:50 32.80674 -113.75688 35764 ft 335 kts 261°
2026-05-04 02:50 32.79893 -113.81155 35752 ft 335 kts 261°
2026-05-04 02:51 32.79108 -113.86630 35750 ft 336 kts 261°
2026-05-04 02:51 32.78323 -113.92093 35756 ft 336 kts 261°
2026-05-04 02:52 32.77654 -113.97586 35749 ft 336 kts 264°
2026-05-04 02:52 32.77526 -114.03110 35748 ft 337 kts 267°
2026-05-04 02:53 32.77555 -114.08694 35758 ft 339 kts 270°
2026-05-04 02:53 32.77791 -114.14303 35763 ft 340 kts 270°
2026-05-04 02:54 32.78014 -114.19859 35763 ft 330 kts 270°
2026-05-04 02:54 32.78228 -114.25269 35779 ft 329 kts 269°
2026-05-04 02:55 32.78541 -114.33386 35779 ft 330 kts 270°
2026-05-04 02:56 32.79095 -114.38827 35785 ft 333 kts 276°
2026-05-04 02:56 32.80338 -114.44156 35775 ft 343 kts 287°
2026-05-04 02:56 32.81667 -114.46582 35781 ft 360 kts 301°
2026-05-04 02:57 32.83607 -114.48597 35785 ft 382 kts 314°
2026-05-04 02:57 32.86067 -114.50049 35771 ft 407 kts 327°
2026-05-04 02:57 32.88911 -114.50809 35778 ft 432 kts 339°
2026-05-04 02:58 32.94692 -114.52020 35770 ft 404 kts 323°
2026-05-04 02:58 32.97118 -114.53506 35729 ft 381 kts 312°
2026-05-04 02:58 32.99126 -114.55437 35342 ft 364 kts 302°
2026-05-04 02:58 33.00700 -114.57715 34824 ft 348 kts 292°
2026-05-04 02:59 33.01837 -114.60192 34374 ft 334 kts 284°
2026-05-04 02:59 33.02563 -114.62767 33848 ft 324 kts 276°
2026-05-04 02:59 33.02894 -114.65390 33264 ft 317 kts 269°
2026-05-04 02:59 33.02850 -114.67994 32704 ft 313 kts 262°
2026-05-04 03:00 33.02449 -114.70527 32146 ft 310 kts 255°
2026-05-04 03:00 33.01824 -114.72985 31610 ft 309 kts 255°
2026-05-04 03:00 33.01221 -114.75393 31122 ft 306 kts 255°
2026-05-04 03:00 33.00615 -114.77834 30547 ft 307 kts 256°
2026-05-04 03:01 33.00012 -114.80263 30049 ft 306 kts 256°
2026-05-04 03:01 32.99409 -114.82689 29510 ft 305 kts 256°
2026-05-04 03:01 32.98809 -114.85107 28922 ft 304 kts 256°
2026-05-04 03:01 32.98209 -114.87517 28372 ft 302 kts 255°
2026-05-04 03:02 32.97611 -114.89914 27828 ft 301 kts 255°
2026-05-04 03:02 32.97014 -114.92305 27297 ft 300 kts 255°
2026-05-04 03:02 32.96422 -114.94675 26899 ft 296 kts 255°
2026-05-04 03:02 32.95836 -114.97016 26799 ft 299 kts 255°
2026-05-04 03:03 32.95231 -114.99438 26772 ft 308 kts 255°
2026-05-04 03:03 32.94619 -115.01879 26441 ft 307 kts 255°
2026-05-04 03:03 32.93998 -115.04360 25414 ft 321 kts 254°
2026-05-04 03:03 32.93330 -115.07029 24648 ft 349 kts 254°
2026-05-04 03:04 32.92634 -115.09803 24225 ft 354 kts 253°
2026-05-04 03:04 32.91931 -115.12598 23982 ft 351 kts 253°
2026-05-04 03:04 32.91236 -115.15353 23850 ft 351 kts 253°
2026-05-04 03:04 32.90521 -115.18183 23785 ft 353 kts 253°
2026-05-04 03:05 32.89819 -115.20963 23777 ft 350 kts 253°
2026-05-04 03:05 32.89117 -115.23739 23776 ft 350 kts 253°
2026-05-04 03:05 32.88415 -115.26512 23772 ft 350 kts 253°
2026-05-04 03:05 32.87712 -115.29289 23780 ft 350 kts 253°
2026-05-04 03:06 32.87010 -115.32056 23780 ft 349 kts 253°
2026-05-04 03:06 32.86389 -115.34850 23782 ft 349 kts 257°
2026-05-04 03:06 32.85978 -115.37701 23784 ft 349 kts 259°
2026-05-04 03:06 32.85587 -115.40556 23783 ft 349 kts 259°
2026-05-04 03:07 32.85191 -115.43406 23785 ft 349 kts 259°
2026-05-04 03:07 32.84796 -115.46219 23787 ft 349 kts 259°
2026-05-04 03:07 32.84391 -115.49101 23783 ft 348 kts 259°
2026-05-04 03:07 32.83967 -115.51890 23590 ft 346 kts 258°
2026-05-04 03:08 32.83504 -115.54690 23104 ft 345 kts 257°
2026-05-04 03:08 32.83034 -115.57486 22499 ft 344 kts 257°
2026-05-04 03:08 32.82569 -115.60272 21873 ft 342 kts 257°
2026-05-04 03:08 32.82109 -115.63046 21301 ft 341 kts 257°
2026-05-04 03:09 32.81655 -115.65803 20700 ft 339 kts 257°
2026-05-04 03:09 32.81355 -115.67622 20306 ft 338 kts 257°
2026-05-04 03:09 32.80905 -115.70364 19722 ft 337 kts 257°
2026-05-04 03:09 32.80457 -115.73087 19188 ft 335 kts 257°
2026-05-04 03:10 32.80013 -115.75782 18938 ft 332 kts 257°
2026-05-04 03:10 32.79564 -115.78499 18842 ft 337 kts 257°
2026-05-04 03:10 32.79111 -115.81237 18823 ft 337 kts 257°
2026-05-04 03:10 32.78660 -115.83971 18827 ft 337 kts 258°
2026-05-04 03:11 32.78362 -115.86737 18745 ft 337 kts 263°
2026-05-04 03:11 32.78165 -115.89510 18393 ft 337 kts 263°
2026-05-04 03:11 32.77963 -115.92281 17869 ft 337 kts 263°
2026-05-04 03:11 32.77758 -115.95054 17214 ft 337 kts 263°
2026-05-04 03:12 32.77551 -115.97834 16592 ft 337 kts 263°
2026-05-04 03:12 32.77342 -116.00609 15969 ft 338 kts 263°
2026-05-04 03:12 32.77135 -116.03353 15395 ft 338 kts 263°
2026-05-04 03:12 32.76929 -116.06096 15181 ft 327 kts 263°
2026-05-04 03:13 32.76731 -116.08737 15080 ft 314 kts 263°
2026-05-04 03:13 32.76541 -116.11259 14977 ft 300 kts 263°
2026-05-04 03:13 32.76357 -116.13678 14864 ft 288 kts 263°
2026-05-04 03:13 32.76176 -116.16036 14539 ft 285 kts 262°
2026-05-04 03:14 32.75994 -116.18375 14158 ft 284 kts 263°
2026-05-04 03:14 32.75814 -116.20706 13798 ft 283 kts 263°
2026-05-04 03:14 32.75635 -116.23023 13408 ft 281 kts 262°
2026-05-04 03:14 32.75458 -116.25322 13025 ft 277 kts 263°
2026-05-04 03:15 32.75283 -116.27593 12659 ft 275 kts 262°
2026-05-04 03:15 32.75108 -116.29850 12278 ft 273 kts 262°
2026-05-04 03:15 32.74936 -116.32085 11941 ft 270 kts 262°
2026-05-04 03:15 32.74764 -116.34299 11565 ft 268 kts 262°
2026-05-04 03:16 32.74594 -116.36489 11236 ft 265 kts 262°
2026-05-04 03:16 32.74426 -116.38655 10897 ft 262 kts 262°
2026-05-04 03:16 32.74259 -116.40801 10584 ft 259 kts 261°
2026-05-04 03:16 32.74092 -116.42931 10219 ft 258 kts 261°
2026-05-04 03:17 32.73927 -116.45041 10066 ft 257 kts 261°
2026-05-04 03:17 32.73756 -116.47191 10013 ft 263 kts 261°
2026-05-04 03:17 32.73587 -116.49336 10013 ft 259 kts 261°
2026-05-04 03:17 32.73416 -116.51451 10012 ft 261 kts 261°
2026-05-04 03:18 32.73214 -116.53587 9947 ft 259 kts 260°
2026-05-04 03:18 32.73003 -116.55707 9607 ft 257 kts 260°
2026-05-04 03:18 32.72790 -116.57821 9124 ft 259 kts 261°
2026-05-04 03:18 32.72580 -116.59944 8795 ft 258 kts 261°
2026-05-04 03:19 32.72372 -116.62060 8407 ft 257 kts 261°
2026-05-04 03:19 32.72166 -116.64163 8107 ft 253 kts 261°
2026-05-04 03:19 32.72004 -116.65821 8049 ft 259 kts 261°
2026-05-04 03:19 32.71815 -116.67928 8026 ft 260 kts 263°
2026-05-04 03:20 32.71652 -116.70057 7873 ft 258 kts 263°
2026-05-04 03:20 32.71493 -116.72184 7514 ft 259 kts 263°
2026-05-04 03:20 32.71331 -116.74304 7191 ft 258 kts 263°
2026-05-04 03:20 32.71167 -116.76424 6850 ft 256 kts 263°
2026-05-04 03:21 32.71003 -116.78521 6565 ft 252 kts 263°
2026-05-04 03:21 32.70844 -116.80553 6464 ft 241 kts 263°
2026-05-04 03:21 32.70540 -116.82459 6382 ft 230 kts 253°
2026-05-04 03:21 32.70004 -116.84205 6075 ft 223 kts 249°
2026-05-04 03:22 32.69454 -116.85931 5593 ft 224 kts 250°
2026-05-04 03:22 32.68911 -116.87665 5134 ft 222 kts 250°
2026-05-04 03:22 32.68394 -116.89345 4848 ft 214 kts 251°
2026-05-04 03:22 32.67921 -116.90950 4702 ft 199 kts 252°
2026-05-04 03:23 32.67478 -116.92480 4472 ft 189 kts 253°
2026-05-04 03:23 32.67317 -116.93902 4333 ft 163 kts 273°
2026-05-04 03:23 32.67539 -116.95117 4208 ft 141 kts 288°
2026-05-04 03:23 32.67844 -116.96180 3897 ft 134 kts 286°
2026-05-04 03:24 32.68103 -116.97233 3578 ft 132 kts 285°
2026-05-04 03:24 32.68357 -116.98286 3211 ft 134 kts 285°
2026-05-04 03:24 32.68615 -116.99348 2859 ft 134 kts 285°
2026-05-04 03:24 32.68865 -117.00386 2601 ft 129 kts 284°
2026-05-04 03:25 32.69110 -117.01396 2709 ft 131 kts 285°
2026-05-04 03:25 32.69367 -117.02463 2691 ft 136 kts 284°
2026-05-04 03:25 32.69629 -117.03541 2682 ft 134 kts 284°
2026-05-04 03:25 32.69880 -117.04580 2539 ft 129 kts 285°
2026-05-04 03:26 32.70128 -117.05606 2193 ft 130 kts 285°
2026-05-04 03:26 32.70376 -117.06630 1949 ft 129 kts 285°
2026-05-04 03:26 32.70621 -117.07646 2030 ft 132 kts 285°
2026-05-04 03:26 32.70878 -117.08711 1883 ft 134 kts 285°
2026-05-04 03:27 32.71133 -117.09760 1668 ft 133 kts 284°
2026-05-04 03:27 32.71387 -117.10812 1456 ft 131 kts 284°
2026-05-04 03:27 32.71635 -117.11842 1240 ft 129 kts 284°
2026-05-04 03:27 32.71883 -117.12863 1027 ft 128 kts 285°
2026-05-04 03:28 32.72132 -117.13894 831 ft 133 kts 285°
2026-05-04 03:28 32.72387 -117.14949 587 ft 132 kts 283°
2026-05-04 03:28 32.72641 -117.15991 396 ft 131 kts 284°
2026-05-04 03:28 32.72878 -117.16990 231 ft 129 kts 283°
2026-05-04 03:29 32.73138 -117.18050 51 ft 130 kts 284°
2026-05-04 03:29 32.73340 -117.18905 25 ft 54 kts 285°
2026-05-04 03:29 32.73366 -117.19128 23 ft 7 kts 239°
2026-05-04 03:29 32.73361 -117.19135 23 ft 2 kts 232°
2026-05-04 03:30 32.73338 -117.19160 25 ft 7 kts 221°
2026-05-04 03:30 32.73319 -117.19226 25 ft 10 kts 273°
2026-05-04 03:30 32.73333 -117.19311 26 ft 11 kts 281°
2026-05-04 03:30 32.73338 -117.19397 25 ft 10 kts 249°
2026-05-04 03:31 32.73318 -117.19476 26 ft 10 kts 255°
2026-05-04 03:31 32.73324 -117.19540 27 ft 7 kts 286°
2026-05-04 03:31 32.73309 -117.19576 26 ft 0 kts 225°